Probability
15 17 19 22 23 21 17 13 10 13 19 21 17 12 5 1 0 1 2 1 0 0 0 0 0 0 0 0 0 0 0 0 0 0 0 0 0 0 0 0 0 0 0
12 16 19 21 21 19 16 12 8 9 14 16 15 10 5 2 1 1 2 1 0 0 0 0 0 0 0 0 0 0 0 0 0 0 0 0 0 0 0 0 0 0 0
9 13 18 20 19 16 12 9 6 5 6 10 10 7 5 4 3 3 2 1 0 0 0 0 0 0 0 0 0 0 0 0 0 0 0 0 0 0 0 0 0 0 0
7 10 15 17 15 12 8 6 4 3 3 5 6 5 4 5 6 5 3 1 1 1 1 0 0 0 0 0 0 0 0 0 0 0 0 0 0 0 0 0 0 0 0
8 9 11 12 11 8 5 3 2 3 3 3 2 1 2 5 6 6 4 3 2 2 2 1 0 0 0 0 0 0 0 0 0 0 0 0 0 0 0 0 0 0 0
10 9 9 10 9 7 4 1 1 2 3 2 1 0 1 3 5 5 4 3 3 3 2 1 0 0 0 0 0 0 0 0 0 0 0 0 0 0 0 0 0 0 0
9 10 10 9 8 6 3 1 0 1 2 1 0 0 1 3 4 4 3 3 3 2 1 0 0 0 0 0 0 0 0 0 0 0 0 0 0 0 0 0 0 0 0
8 10 11 10 8 5 3 1 0 1 1 1 0 0 1 2 2 3 3 3 2 1 0 0 0 0 0 0 0 0 0 0 0 0 0 0 0 0 0 0 0 0 0
7 10 13 12 8 4 1 0 0 0 0 0 0 0 1 1 1 1 2 1 1 0 0 0 0 0 0 0 0 0 0 0 0 0 0 0 0 0 0 0 0 0 0
6 9 12 12 8 4 1 0 0 0 0 0 0 0 0 0 0 1 2 1 0 0 0 0 0 0 0 0 0 0 0 0 0 0 0 0 0 0 0 0 0 0 0
4 6 9 9 7 4 2 1 0 0 0 0 0 1 1 1 1 1 1 1 0 0 0 0 0 0 0 0 0 0 0 0 0 0 0 0 0 0 0 0 0 0 0
2 3 5 6 6 5 4 2 1 0 0 0 0 1 1 1 0 0 0 0 0 0 0 0 0 0 0 0 0 0 0 0 0 0 0 0 0 0 0 0 0 0 0
1 1 2 3 4 4 4 2 1 0 0 0 0 0 0 0 0 0 0 0 0 0 0 0 0 0 0 0 0 0 0 0 0 0 0 0 0 0 0 0 0 0 0
1 1 1 1 1 2 2 2 1 1 0 0 0 0 0 0 0 0 0 0 0 0 0 0 0 0 0 0 0 0 0 0 0 0 0 0 0 0 0 0 0 0 0
1 0 0 0 0 0 1 2 2 2 1 0 0 0 0 0 0 0 0 0 0 0 0 0 0 0 0 0 0 0 0 0 0 0 0 0 0 0 0 0 0 0 0
0 0 0 0 0 0 0 1 2 2 1 0 0 0 0 0 0 1 1 0 0 0 0 0 0 0 0 0 0 0 0 0 0 0 0 0 0 0 0 0 0 0 0
0 0 0 0 0 1 1 1 2 3 3 1 0 0 1 1 1 2 2 1 1 1 0 0 0 0 0 0 0 0 0 0 0 0 0 0 0 0 0 0 0 0 0
0 0 0 0 0 2 3 3 3 5 4 1 1 2 3 3 2 3 3 3 2 2 1 1 0 0 0 0 0 0 0 0 0 0 0 0 0 0 0 0 0 0 0
0 0 0 0 0 2 5 5 5 5 4 3 4 5 6 5 4 3 2 2 3 3 2 1 0 0 0 0 0 0 0 0 0 0 0 0 0 0 0 0 0 0 0
0 0 0 0 0 2 5 6 6 5 5 5 6 7 7 6 4 3 1 2 3 3 3 1 0 0 0 0 0 0 0 0 0 0 0 0 0 0 0 0 0 0 0
0 0 0 0 0 1 4 6 5 4 5 6 6 7 6 4 3 2 1 2 3 3 2 1 0 0 0 0 0 0 0 0 0 0 0 0 0 0 0 0 0 0 0
0 0 0 0 0 1 3 4 4 4 5 6 7 8 6 4 2 1 1 1 2 2 2 1 0 0 0 0 0 0 0 0 0 0 0 0 0 0 0 0 0 0 0
0 0 0 0 0 1 3 4 4 4 5 6 6 7 6 4 3 1 0 0 1 1 1 0 0 0 0 0 0 0 0 0 0 0 0 0 0 0 0 0 0 0 0
0 0 0 0 0 1 2 3 5 6 6 6 5 5 4 4 3 1 0 0 0 0 0 0 0 0 0 0 0 0 0 0 0 0 0 0 0 0 0 0 0 0 0
0 0 0 0 0 0 1 2 4 5 5 4 3 2 3 3 3 2 1 0 0 0 0 0 0 0 0 0 0 0 0 0 0 0 0 0 0 0 0 0 0 0 0
0 0 0 0 0 0 0 1 3 4 4 2 1 1 2 4 4 3 2 1 0 0 0 0 0 0 0 0 0 0 0 0 0 0 0 0 0 0 0 0 0 0 0
Wind_Speed
5 5 7 8 8 9 10 10 10 10 9 6 6 5 5 4 3 3 5 6 6 6 5 4 4 4 3 3 3 2 3 2 1 2 2 3 3 3 2 2 1 1 1
4 6 7 8 9 10 11 11 10 10 9 7 5 4 4 3 3 3 4 5 6 6 6 5 4 4 3 3 3 3 2 2 2 2 2 2 3 3 3 2 2 2 1
7 7 8 9 10 12 13 12 11 10 9 8 5 5 4 3 2 3 3 4 5 6 5 6 5 4 4 4 3 3 4 2 1 1 3 3 2 1 2 3 3 2 1
6 6 7 8 9 11 11 11 10 10 9 9 9 10 7 5 4 4 3 3 4 5 6 6 6 5 4 4 3 3 3 3 2 1 2 1 3 3 1 2 2 2 2
7 7 7 8 8 8 9 10 10 9 9 9 10 9 6 4 4 4 5 4 3 4 5 6 5 5 4 4 3 3 3 2 3 3 2 2 2 2 2 1 2 2 2
6 6 5 6 7 8 8 9 9 8 9 9 9 9 9 8 8 6 6 4 3 3 4 6 5 5 4 4 4 3 4 3 3 2 2 3 2 2 2 2 1 1 2
7 7 7 7 8 9 10 9 10 9 9 9 9 9 9 9 9 8 7 6 4 3 4 5 5 4 4 4 4 4 4 3 3 3 2 2 2 2 3 3 2 0 1
7 8 8 8 8 9 9 10 10 9 9 9 8 7 8 6 5 6 6 6 5 4 5 5 5 5 5 5 4 3 3 3 3 3 3 2 2 2 2 3 3 2 1
7 7 7 8 8 8 9 10 10 8 8 8 8 7 7 6 6 6 5 5 4 5 6 6 6 5 5 5 5 3 3 4 3 3 3 2 2 2 2 2 3 4 2
6 7 7 8 8 7 7 7 8 8 8 8 8 7 7 7 6 6 7 6 6 5 7 6 6 6 5 5 5 4 4 4 3 3 4 3 2 2 2 2 2 2 3
8 8 8 8 7 7 7 7 8 7 7 8 7 7 7 7 7 7 7 7 6 7 8 7 7 6 6 6 5 4 5 5 4 4 4 4 3 2 2 2 2 2 3
7 7 8 8 8 8 8 8 9 9 8 8 7 7 7 7 8 8 7 7 7 7 7 7 7 7 7 6 7 7 6 6 6 5 5 5 4 4 3 3 3 3 4
7 6 7 8 9 10 9 9 10 10 9 8 8 8 8 8 8 8 7 7 7 7 7 7 8 8 7 7 7 7 7 7 7 6 7 6 5 5 4 4 4 3 3
6 7 7 7 8 9 10 10 10 10 9 9 9 9 9 9 9 8 8 8 8 8 8 8 8 8 8 8 7 7 7 7 6 6 7 7 7 7 7 5 6 4 4
5 7 8 7 7 8 9 10 10 10 10 10 10 10 8 8 8 8 8 8 8 8 8 8 7 7 7 7 8 8 8 7 7 7 7 8 9 10 8 6 6 6 5
5 6 7 8 8 9 9 10 10 10 10 10 10 9 8 8 8 8 8 8 8 7 7 8 8 8 7 9 12 10 8 7 8 8 7 7 9 11 12 12 11 10 8
4 5 6 7 8 9 9 10 10 9 10 10 9 9 9 9 9 9 8 9 9 8 8 8 8 8 8 10 11 13 8 8 8 8 7 6 7 9 8 10 12 12 14
2 3 4 5 6 6 7 7 8 9 10 10 9 9 10 10 8 8 9 9 7 7 7 7 8 7 8 10 11 11 9 7 8 8 8 8 7 7 7 7 7 8 9
1 1 3 4 4 5 6 7 7 8 8 9 9 9 10 9 8 9 9 8 7 7 7 6 7 8 8 9 10 9 6 6 8 7 7 8 8 8 9 7 8 8 8
4 3 2 3 4 4 7 8 7 7 7 7 7 7 8 8 9 9 7 6 6 7 6 6 6 7 7 8 10 10 5 6 6 6 7 9 10 9 8 8 8 9 8
6 5 6 5 2 3 7 8 6 6 5 5 4 4 5 6 6 6 5 5 5 5 5 6 5 6 6 7 9 10 6 7 6 6 6 6 9 10 10 9 8 10 8
7 7 7 7 5 5 7 8 5 3 4 5 4 3 3 4 4 4 4 4 5 5 4 4 3 3 3 5 6 9 10 7 6 6 5 4 6 8 9 8 9 10 7
7 7 8 8 8 8 7 6 3 4 5 6 4 3 3 2 2 4 4 3 3 3 3 3 3 3 2 2 5 7 8 9 6 5 5 5 6 7 6 9 10 8 5
7 7 9 10 8 8 8 6 4 5 6 6 4 4 3 3 3 2 2 2 2 3 2 2 3 2 1 2 2 2 3 5 5 5 4 4 5 4 5 5 5 5 5
6 7 7 8 8 8 8 6 5 6 7 6 5 4 3 3 3 3 2 2 1 2 2 2 2 2 2 2 2 2 2 2 3 2 2 2 2 3 3 4 4 4 4
8 9 8 8 8 8 8 7 6 6 7 6 5 4 3 3 3 3 3 5 4 4 3 2 1 1 1 1 0 1 2 2 2 2 2 2 3 4 4 4 4 4 5
Wind_Direction
182 175 178 174 170 170 170 177 174 167 160 160 163 163 169 163 158 163 160 160 158 157 156 154 151 148 145 147 137 115 96 67 61 81 45 22 30 42 33 33 49 32 18
180 182 183 182 178 178 176 178 179 169 170 170 164 157 146 143 146 147 147 158 158 158 164 158 157 153 140 139 141 131 119 80 60 111 98 43 7 8 19 24 44 30 29
192 190 186 184 181 181 181 180 177 174 174 162 141 129 109 102 117 139 151 160 161 161 156 157 152 155 153 158 161 152 139 131 73 76 135 144 193 312 351 12 23 14 26
193 191 184 181 183 180 177 173 171 174 173 163 163 161 160 161 170 163 154 150 155 157 151 151 152 153 152 155 163 153 143 139 141 99 66 106 144 142 85 349 2 12 26
191 190 188 179 171 167 168 168 168 171 170 168 168 166 160 151 135 131 136 137 137 147 150 150 150 150 151 153 149 143 145 146 151 151 139 108 78 92 133 153 338 357 5
183 185 174 155 155 155 155 159 163 166 166 167 166 164 157 148 144 147 152 147 137 138 149 151 151 151 151 155 157 153 150 149 143 143 147 152 149 155 141 149 180 315 326
174 176 165 158 160 160 158 159 164 165 165 167 166 165 161 158 162 162 162 156 155 159 168 156 155 156 160 158 155 155 156 156 151 152 154 159 158 148 143 137 145 174 321
176 180 175 170 167 162 161 160 166 163 164 167 166 163 161 159 164 165 163 169 171 168 164 161 163 162 161 159 157 155 164 159 157 158 152 148 156 159 157 152 146 137 344
175 180 177 171 169 167 170 168 166 160 161 162 157 158 162 164 167 165 162 164 163 163 163 164 166 166 164 160 159 166 168 161 164 165 163 156 164 168 165 154 156 153 172
173 177 179 175 173 172 168 163 163 165 163 162 165 168 168 172 167 162 171 173 171 165 163 168 171 169 167 166 164 166 168 164 169 170 168 170 172 167 163 164 163 161 165
182 181 181 176 170 165 166 167 166 163 164 167 167 164 169 170 169 176 184 180 174 173 175 177 176 177 176 172 172 179 173 177 181 182 184 193 179 175 174 168 168 173 167
181 179 175 169 172 174 175 176 175 174 175 171 167 167 167 168 175 184 187 181 180 181 181 178 179 185 183 180 184 190 187 189 193 196 192 201 189 188 186 184 191 194 193
171 172 173 176 182 184 183 183 183 182 175 170 171 172 174 178 185 189 186 182 182 182 181 181 187 191 189 188 194 193 194 198 202 199 199 205 193 202 201 199 204 205 201
177 177 184 187 189 188 187 187 187 182 175 174 177 184 189 190 191 188 185 185 184 185 188 192 196 196 194 194 196 197 201 206 210 208 208 208 204 210 208 208 212 206 202
187 190 191 190 189 189 190 189 187 183 178 178 185 193 191 188 187 187 188 188 189 194 192 192 197 197 196 202 200 201 206 210 216 220 220 221 219 218 212 211 211 204 209
197 196 193 190 192 194 194 191 188 183 177 183 192 189 184 186 190 193 190 188 193 192 188 195 198 200 209 209 204 201 208 209 215 224 228 231 231 230 224 223 216 203 207
198 194 197 196 195 197 193 191 187 176 178 187 189 186 185 191 194 193 189 194 195 191 196 200 200 207 215 212 210 209 207 213 218 223 227 234 232 223 229 232 231 226 224
218 205 201 201 198 189 184 179 170 172 181 188 191 188 189 195 191 188 193 196 190 191 198 201 203 208 220 215 215 213 212 220 224 223 222 228 236 228 222 228 235 237 235
303 229 203 184 169 172 167 154 160 167 177 190 195 192 190 193 190 195 199 194 187 193 198 198 201 211 226 217 214 208 210 225 233 231 228 227 235 237 225 226 239 249 252
36 37 63 113 139 161 148 144 153 158 176 190 193 186 183 186 192 197 197 188 187 197 195 202 207 214 226 222 215 204 210 226 236 237 235 230 232 238 225 224 234 248 254
48 54 62 70 90 136 134 135 139 163 179 169 160 162 174 185 190 186 181 175 184 190 196 207 214 219 228 231 220 208 211 223 233 239 240 235 227 232 229 224 230 242 251
47 56 66 58 50 83 111 116 129 152 129 116 122 142 157 175 179 165 166 167 176 190 203 207 220 225 225 228 228 214 216 221 226 237 240 237 228 230 232 231 240 247 250
50 52 63 60 49 51 77 94 96 100 103 105 110 114 118 129 141 156 161 153 163 183 199 200 223 237 229 235 230 218 215 217 221 237 241 241 235 233 237 238 242 243 239
56 56 61 62 52 48 56 64 69 92 99 99 98 97 103 100 94 105 124 137 160 180 190 201 219 229 226 243 246 236 229 224 229 244 250 244 241 240 252 259 251 239 233
61 62 64 66 57 52 51 46 51 77 85 82 81 79 83 97 99 94 89 113 133 173 186 207 205 203 230 250 227 209 229 229 229 220 228 235 242 249 255 259 259 252 242
58 61 55 57 55 55 51 41 44 67 79 73 65 67 70 75 84 87 73 60 73 68 74 97 149 209 224 341 20 232 252 257 187 170 235 251 255 259 263 268 272 265 259